WI1SKY Weather Reports


Display with metric or nautical units.
time (UTC)temp
F
wind
direction
speed
MPH
gust
MPH
rain 1hr
in
rain 24hr
in
rain mn
in
humidity
%
barometer
mb
20260505194237 55 305 8.0 13.0 0.00 0.00 0.00 37 1008.3
20260505194108 55 295 8.0 13.0 0.00 0.00 0.00 38 1008.5
20260505193249 54 292 8.0 13.0 0.00 0.00 0.00 40 1008.5
20260505193101 54 290 8.0 13.0 0.00 0.00 0.00 39 1008.4
20260505192034 53 294 9.0 13.0 0.00 0.00 0.00 39 1008.4
20260505191534 53 302 8.0 14.0 0.00 0.00 0.00 38 1008.5
20260505191231 54 312 10.0 13.0 0.00 0.00 0.00 37 1008.5
20260505191102 54 289 9.0 14.0 0.00 0.00 0.00 41 1008.4
20260505190029 55 306 10.0 14.0 0.00 0.00 0.00 36 1008.5
20260505185533 55 299 7.0 14.0 0.00 0.00 0.00 34 1008.5
20260505185029 55 305 5.0 9.0 0.00 0.00 0.00 37 1008.5
20260505184745 56 265 6.0 12.0 0.00 0.00 0.00 34 1008.5
20260505184602 56 297 5.0 9.0 0.00 0.00 0.00 36 1008.5
20260505183533 56 277 7.0 13.0 0.00 0.00 0.00 38 1008.5
20260505183029 57 294 7.0 13.0 0.00 0.00 0.00 32 1008.4
20260505182800 57 256 6.0 10.0 0.00 0.00 0.00 35 1008.2
20260505182606 57 298 6.0 10.0 0.00 0.00 0.00 39 1008.3
20260505181756 56 294 8.0 12.0 0.00 0.00 0.00 38 1008.2
20260505181609 56 297 6.0 11.0 0.00 0.00 0.00 39 1008.3
20260505180742 54 308 5.0 10.0 0.00 0.00 0.00 39 1008.3
20260505180654 55 286 5.0 14.0 0.00 0.00 0.00 38 1008.3
20260505180550 55 306 8.0 12.0 0.00 0.00 0.00 39 1008.3
20260505180231 55 307 8.0 12.0 0.00 0.00 0.00 40 1008.3
20260505175634 55 291 7.0 14.0 0.00 0.00 0.00 38 1008.3
20260505174256 53 304 8.0 12.0 0.00 0.00 0.00 38 1008.3
20260505174108 54 280 7.0 12.0 0.00 0.00 0.00 38 1008.4
20260505173033 53 294 7.0 12.0 0.00 0.00 0.00 37 1008.3
20260505172529 52 239 5.0 11.0 0.00 0.00 0.00 40 1008.2
20260505172031 52 313 4.0 11.0 0.00 0.00 0.00 39 1008.2
20260505171529 52 280 7.0 13.0 0.00 0.00 0.00 39 1008.3
20260505171029 52 300 8.0 13.0 0.00 0.00 0.00 36 1008.3
20260505170530 52 355 9.0 15.0 0.00 0.00 0.00 37 1008.3
20260505170258 52 316 8.0 15.0 0.00 0.00 0.00 34 1008.2
20260505170110 52 309 11.0 15.0 0.00 0.00 0.00 37 1008.3
20260505165250 53 254 6.0 14.0 0.00 0.00 0.00 35 1008.4
20260505165108 52 302 5.0 12.0 0.00 0.00 0.00 37 1008.4
20260505164032 53 292 7.0 16.0 0.00 0.00 0.00 38 1008.4
20260505163530 53 311 5.0 16.0 0.00 0.00 0.00 35 1008.4
20260505163028 53 302 5.0 9.0 0.00 0.00 0.00 38 1008.4
20260505162529 53 294 6.0 10.0 0.00 0.00 0.00 37 1008.4
20260505162032 53 309 6.0 10.0 0.00 0.00 0.00 38 1008.4
20260505161533 52 274 5.0 9.0 0.00 0.00 0.00 37 1008.3
20260505161028 52 309 6.0 10.0 0.00 0.00 0.00 36 1008.3
20260505160530 53 320 7.0 10.0 0.00 0.00 0.00 33 1008.3
20260505153036 53 307 8.0 13.0 0.00 0.00 0.00 35 1008.1
20260505152530 52 316 8.0 13.0 0.00 0.00 0.00 35 1008.1
20260505152030 52 311 7.0 13.0 0.00 0.00 0.00 35 1008.1
20260505151531 52 263 8.0 13.0 0.00 0.00 0.00 34 1008.1
20260505151035 52 301 11.0 14.0 0.00 0.00 0.00 35 1008.2
20260505150529 52 318 10.0 14.0 0.00 0.00 0.00 35 1008.1
20260505140503 51 306 6.0 8.0 0.00 0.00 0.00 44 1008.2
20260505125003 47 294 4.0 7.0 0.00 0.00 0.00 53 1007.9
20260505124459 47 306 4.0 7.0 0.00 0.00 0.00 53 1007.8
20260505123959 47 305 4.0 7.0 0.00 0.00 0.00 54 1007.6
20260505123458 47 308 4.0 7.0 0.00 0.00 0.00 56 1007.6
20260505123318 46 298 3.0 4.0 0.00 0.00 0.00 56 1007.5
20260505122456 46 299 3.0 4.0 0.00 0.00 0.00 57 1007.4
20260505121958 46 299 3.0 4.0 0.00 0.00 0.00 58 1007.3
20260505121456 45 300 3.0 4.0 0.00 0.00 0.00 60 1007.3
20260505121311 44 300 2.0 3.0 0.00 0.00 0.00 62 1007.2
20260505120757 44 300 2.0 3.0 0.00 0.00 0.00 63 1007.1
20260505120255 43 300 2.0 3.0 0.00 0.00 0.00 64 1006.9
20260505115450 42 300 2.0 3.0 0.00 0.00 0.00 64 1006.7
20260505114950 42 300 2.0 3.0 0.00 0.00 0.00 64 1006.7
20260505114451 41 300 3.0 4.0 0.00 0.00 0.00 64 1006.5
20260505113951 40 300 3.0 4.0 0.00 0.00 0.00 64 1006.3
20260505113450 40 300 3.0 4.0 0.00 0.00 0.00 65 1006.3
20260505112948 39 300 2.0 4.0 0.00 0.00 0.00 65 1006.2
20260505112447 39 300 2.0 3.0 0.00 0.00 0.00 65 1006.2
20260505111946 39 300 2.0 2.0 0.00 0.00 0.00 68 1006.0
20260505111446 39 300 2.0 2.0 0.00 0.00 0.00 67 1006.2
20260505111253 40 300 2.0 3.0 0.00 0.00 0.00 66 1006.2
20260505110444 40 300 2.0 3.0 0.00 0.00 0.00 65 1006.3
20260505101433 41 297 2.0 3.0 0.00 0.00 0.00 62 1005.7
20260505100930 41 297 2.0 3.0 0.00 0.00 0.00 62 1005.6
20260505100431 41 297 2.0 3.0 0.00 0.00 0.00 62 1005.4
20260505095929 41 297 2.0 4.0 0.00 0.00 0.00 61 1005.3
20260505095430 41 299 3.0 4.0 0.00 0.00 0.00 62 1005.3
20260505094929 41 299 3.0 4.0 0.00 0.00 0.00 62 1005.2
20260505094739 41 297 3.0 4.0 0.00 0.00 0.00 63 1005.2
20260505094039 41 295 3.0 4.0 0.00 0.00 0.00 64 1005.0
20260505094014 41 295 3.0 4.0 0.00 0.00 0.00 64 1005.1
20260505092928 41 289 3.0 4.0 0.00 0.00 0.00 65 1005.0
20260505092756 41 286 2.0 4.0 0.00 0.00 0.00 65 1005.0
20260505091929 41 304 2.0 4.0 0.00 0.00 0.00 64 1004.9
20260505091739 41 304 2.0 4.0 0.00 0.00 0.00 64 1004.9
20260505090931 41 304 2.0 4.0 0.00 0.00 0.00 64 1004.8
20260505090431 41 304 2.0 4.0 0.00 0.00 0.00 63 1004.8
20260505085932 41 304 2.0 3.0 0.00 0.00 0.00 63 1004.7
20260505085429 41 304 2.0 3.0 0.00 0.00 0.00 63 1004.7
20260505084929 42 305 2.0 3.0 0.00 0.00 0.00 62 1004.6
20260505084429 42 305 2.0 3.0 0.00 0.00 0.00 62 1004.5
20260505084235 42 305 2.0 3.0 0.00 0.00 0.00 62 1004.4
20260505083429 42 305 2.0 4.0 0.00 0.00 0.00 62 1004.4
20260505082929 42 305 2.0 4.0 0.00 0.00 0.00 61 1004.3
20260505082429 42 309 2.0 4.0 0.00 0.00 0.00 61 1004.2
20260505081935 42 309 2.0 4.0 0.00 0.00 0.00 61 1004.1
20260505081452 43 305 2.0 3.0 0.00 0.00 0.00 59 1004.0
20260505081431 42 305 2.0 3.0 0.00 0.00 0.00 61 1004.1
20260505081418 43 305 2.0 3.0 0.00 0.00 0.00 60 1004.1
20260505081100 42 305 2.0 3.0 0.00 0.00 0.00 61 1004.1
20260505080003 43 305 2.0 3.0 0.00 0.00 0.00 60 1004.0
20260505074929 44 305 2.0 3.0 0.00 0.00 0.00 58 1004.0
20260505074429 44 305 2.0 3.0 0.00 0.00 0.00 57 1004.0
20260505073930 44 305 2.0 3.0 0.00 0.00 0.00 56 1003.9
20260505073428 44 305 2.0 3.0 0.00 0.00 0.00 55 1003.9
20260505072930 44 305 2.0 3.0 0.00 0.00 0.00 54 1003.9
20260505072430 44 305 2.0 3.0 0.00 0.00 0.00 53 1004.0
20260505071933 45 305 2.0 3.0 0.00 0.00 0.00 53 1003.9
20260505071432 45 305 2.0 3.0 0.00 0.00 0.00 53 1003.9
20260505070936 45 305 2.0 4.0 0.00 0.00 0.00 53 1003.9
20260505070434 45 305 2.0 4.0 0.00 0.00 0.00 53 1004.0
20260505065931 45 306 2.0 3.0 0.00 0.00 0.00 53 1004.1
20260505065430 45 306 2.0 3.0 0.00 0.00 0.00 54 1004.1
20260505064930 45 306 2.0 4.0 0.00 0.00 0.00 55 1004.1
20260505064620 46 308 3.0 4.0 0.00 0.00 0.00 52 1004.1
20260505064456 46 306 3.0 4.0 0.00 0.00 0.00 53 1004.1
20260505063433 46 308 3.0 6.0 0.00 0.00 0.00 52 1004.0
20260505062933 46 308 3.0 6.0 0.00 0.00 0.00 51 1004.1
20260505062430 46 307 3.0 7.0 0.00 0.00 0.00 52 1004.2
20260505061929 46 307 4.0 7.0 0.00 0.00 0.00 50 1004.2
20260505061434 46 304 4.0 7.0 0.00 0.00 0.00 50 1004.2
20260505060933 46 309 4.0 7.0 0.00 0.00 0.00 50 1004.2
20260505060429 47 302 4.0 7.0 0.00 0.00 0.00 50 1004.2
20260505055930 47 306 4.0 7.0 0.00 0.00 0.00 50 1004.2
20260505055433 47 306 5.0 7.0 0.00 0.00 0.00 48 1004.2
20260505055134 47 306 8.0 10.0 0.00 0.00 0.00 47 1004.2
20260505054959 47 311 6.0 10.0 0.00 0.00 0.00 48 1004.2
20260505054313 48 294 8.0 11.0 0.00 0.00 0.00 47 1004.2
20260505054301 48 305 9.0 11.0 0.00 0.00 0.00 47 1004.1
20260505054031 47 303 8.0 10.0 0.00 0.00 0.00 48 1004.1
20260505052810 48 297 10.0 15.0 0.00 0.00 0.00 46 1004.0
20260505052758 48 298 10.0 15.0 0.00 0.00 0.00 45 1003.9
20260505052527 48 306 9.0 12.0 0.00 0.00 0.00 46 1004.0
20260505051311 49 308 11.0 16.0 0.00 0.00 0.00 46 1003.7
20260505051253 49 311 12.0 17.0 0.00 0.00 0.00 46 1003.7
20260505051018 48 302 10.0 14.0 0.00 0.00 0.00 46 1003.9
20260505050656 49 311 10.0 16.0 0.00 0.00 0.00 46 1003.9
20260505041702 51 325 8.0 12.0 0.00 0.00 0.00 45 1003.0
20260505041510 51 322 9.0 12.0 0.00 0.00 0.00 45 1003.1
20260505040432 51 323 8.0 11.0 0.00 0.00 0.00 47 1002.9
20260505035930 52 322 9.0 11.0 0.00 0.00 0.00 45 1002.8
20260505035428 52 321 7.0 11.0 0.00 0.00 0.00 46 1002.7
20260505034932 52 323 7.0 9.0 0.00 0.00 0.00 47 1002.7
20260505034433 52 306 7.0 11.0 0.00 0.00 0.00 46 1002.5
20260505034139 52 311 10.0 13.0 0.00 0.00 0.00 45 1002.4
20260505033956 52 303 9.0 13.0 0.00 0.00 0.00 46 1002.5
20260505032933 52 308 10.0 14.0 0.00 0.00 0.00 45 1002.3
20260505032429 53 304 11.0 15.0 0.00 0.00 0.00 45 1002.3
20260505032155 53 298 12.0 19.0 0.00 0.00 0.00 45 1002.3
20260505032006 53 304 13.0 19.0 0.00 0.00 0.00 45 1002.2
20260505030929 53 305 12.0 16.0 0.00 0.00 0.00 45 1002.2
20260505030430 53 305 12.0 16.0 0.00 0.00 0.00 45 1001.8
20260505025929 54 310 12.0 17.0 0.00 0.00 0.00 45 1001.7
20260505025632 55 304 10.0 16.0 0.00 0.00 0.00 45 1001.3
20260505025620 55 300 10.0 14.0 0.00 0.00 0.00 44 1001.2
20260505025541 55 309 9.0 14.0 0.00 0.00 0.00 44 1001.1
20260505025440 54 319 12.0 18.0 0.00 0.00 0.00 44 1001.7
20260505025111 54 308 12.0 18.0 0.00 0.00 0.00 45 1001.4
20260505022932 55 299 9.0 12.0 0.00 0.00 0.00 44 1001.0
20260505022712 56 312 10.0 13.0 0.00 0.00 0.00 44 1000.7
20260505022509 56 301 9.0 12.0 0.00 0.00 0.00 44 1000.9
20260505021428 56 306 10.0 15.0 0.00 0.00 0.00 43 1000.6
20260505020929 56 297 11.0 15.0 0.00 0.00 0.00 43 1000.5
20260505020634 56 309 11.0 15.0 0.00 0.00 0.00 42 1000.2
20260505020501 56 313 11.0 15.0 0.00 0.00 0.00 42 1000.5
20260505015433 57 313 10.0 14.0 0.00 0.00 0.00 43 1000.1
20260505014929 57 309 10.0 14.0 0.00 0.00 0.00 41 1000.0
20260505014428 57 314 9.0 14.0 0.00 0.00 0.00 41 999.9
20260505014021 58 302 10.0 15.0 0.00 0.00 0.00 41 999.5
20260505013934 57 315 9.0 13.0 0.00 0.00 0.00 41 999.8
20260505013556 57 311 9.0 13.0 0.00 0.00 0.00 41 999.7
20260505013005 58 306 9.0 12.0 0.00 0.00 0.00 41 999.5
20260505011928 58 313 11.0 15.0 0.00 0.00 0.00 40 999.4
20260505011429 58 302 11.0 15.0 0.00 0.00 0.00 40 999.3
20260505010930 58 304 11.0 17.0 0.00 0.00 0.00 41 999.3
20260505010430 58 312 10.0 17.0 0.00 0.00 0.00 39 999.2
20260505005935 58 303 10.0 15.0 0.00 0.00 0.00 41 999.3
20260505005431 59 308 9.0 15.0 0.00 0.00 0.00 40 999.2
20260505004930 59 315 10.0 14.0 0.00 0.00 0.00 39 999.2
20260505004433 59 304 9.0 13.0 0.00 0.00 0.00 40 999.2
20260505003932 59 302 8.0 12.0 0.00 0.00 0.00 40 999.2
20260505003434 59 296 8.0 11.0 0.00 0.00 0.00 41 999.0
20260505002930 60 297 7.0 11.0 0.00 0.00 0.00 42 999.0
20260505002432 60 307 6.0 9.0 0.00 0.00 0.00 43 999.0
20260505001935 60 292 7.0 11.0 0.00 0.00 0.00 42 998.9
20260505001430 60 296 7.0 11.0 0.00 0.00 0.00 41 998.8
20260505000935 60 297 8.0 13.0 0.00 0.00 0.00 42 998.7
20260505000434 60 298 10.0 14.0 0.00 0.00 0.00 40 998.7
20260504235931 60 309 11.0 14.0 0.00 0.00 0.00 39 998.6
20260504235431 61 306 11.0 16.0 0.00 0.00 0.00 40 998.7
20260504235227 61 310 10.0 15.0 0.00 0.00 0.00 37 998.5
20260504235000 61 305 12.0 16.0 0.00 0.00 0.00 37 998.6
20260504233920 61 306 10.0 15.0 0.00 0.00 0.00 37 998.5
20260504233418 62 290 12.0 17.0 0.00 0.00 0.00 35 998.4
20260504233149 63 289 12.0 17.0 0.00 0.00 0.00 33 998.2
20260504232955 62 294 13.0 17.0 0.00 0.00 0.00 34 998.3
20260504232025 64 316 9.0 17.0 0.00 0.00 0.00 33 997.7
20260504231929 63 295 12.0 17.0 0.00 0.00 0.00 31 998.2
20260504231549 63 298 11.0 15.0 0.00 0.00 0.00 32 998.1
20260504230957 64 306 11.0 17.0 0.00 0.00 0.00 33 997.9
20260504225917 64 302 8.0 13.0 0.00 0.00 0.00 35 997.7
20260504225421 64 284 8.0 12.0 0.00 0.00 0.00 33 997.6
20260504225215 64 311 9.0 13.0 0.00 0.00 0.00 34 997.6
20260504224947 64 290 8.0 11.0 0.00 0.00 0.00 34 997.6
20260504223910 64 302 11.0 15.0 0.00 0.00 0.00 32 997.5
20260504223637 65 298 8.0 14.0 0.00 0.00 0.00 33 997.4
20260504223443 65 284 11.0 15.0 0.00 0.00 0.00 32 997.4
20260504222404 65 296 8.0 11.0 0.00 0.00 0.00 35 997.4
20260504221904 65 294 9.0 13.0 0.00 0.00 0.00 35 997.3
20260504221405 65 299 10.0 14.0 0.00 0.00 0.00 35 997.3
20260504220909 65 307 11.0 15.0 0.00 0.00 0.00 33 997.2
20260504220409 66 303 9.0 15.0 0.00 0.00 0.00 34 997.2
20260504215904 66 305 7.0 13.0 0.00 0.00 0.00 36 997.3
20260504215405 66 284 6.0 10.0 0.00 0.00 0.00 38 997.2
20260504214906 66 263 7.0 12.0 0.00 0.00 0.00 36 997.2
20260504214643 66 302 7.0 13.0 0.00 0.00 0.00 36 997.0
20260504214435 66 296 7.0 12.0 0.00 0.00 0.00 39 997.0
20260504213400 66 288 8.0 14.0 0.00 0.00 0.00 37 997.1
20260504212902 66 285 9.0 14.0 0.00 0.00 0.00 36 997.0
20260504212407 66 288 10.0 13.0 0.00 0.00 0.00 36 996.9
20260504211903 67 288 12.0 18.0 0.00 0.00 0.00 34 996.9
20260504211406 67 321 12.0 18.0 0.00 0.00 0.00 35 996.9
20260504210901 67 306 11.0 18.0 0.00 0.00 0.00 36 997.0
20260504210402 67 295 12.0 18.0 0.00 0.00 0.00 35 996.9
20260504205907 67 294 11.0 18.0 0.00 0.00 0.00 33 997.0
20260504205637 68 295 10.0 16.0 0.00 0.00 0.00 36 996.9
20260504205433 67 300 10.0 16.0 0.00 0.00 0.00 33 996.9
20260504204402 68 303 10.0 15.0 0.00 0.00 0.00 34 996.6
20260504203903 68 292 11.0 16.0 0.00 0.00 0.00 37 996.7
20260504203405 69 303 11.0 16.0 0.00 0.00 0.00 36 996.6
20260504202902 69 305 10.0 15.0 0.00 0.00 0.00 35 996.5
20260504202408 69 301 11.0 15.0 0.00 0.00 0.00 37 996.4
20260504201908 70 316 12.0 17.0 0.00 0.00 0.00 34 996.4
20260504201408 70 304 13.0 17.0 0.00 0.00 0.00 32 996.4
20260504200906 71 318 11.0 17.0 0.00 0.00 0.00 33 996.3
20260504200407 71 302 10.0 14.0 0.00 0.00 0.00 35 996.2
20260504195907 71 311 11.0 16.0 0.00 0.00 0.00 33 996.1
20260504195403 72 314 12.0 16.0 0.00 0.00 0.00 34 996.1
20260504194900 72 314 11.0 14.0 0.00 0.00 0.00 33 996.0
20260504194403 72 306 10.0 14.0 0.00 0.00 0.00 33 996.0